This is the latest recevied weather packets stored in our database for station/object HF3P-11. If no packets are shown the sender has not sent any weather packets the latest 10 day(s).
| Time | Temp. | Humidity | Pressure | Rain* | Wind** | Luminosity | Snow |
|---|---|---|---|---|---|---|---|
| 1777779901 | 11.67° C | 58% | 1009 hPa | 0 mm | - | - | - |
| 1777779593 | 11.67° C | 58% | 1008.9 hPa | 0 mm | - | - | - |
| 1777779301 | 11.67° C | 58% | 1008.9 hPa | 0 mm | - | - | - |
| 1777778993 | 11.67° C | 58% | 1008.9 hPa | 0 mm | - | - | - |
| 1777778702 | 11.67° C | 58% | 1008.8 hPa | 0 mm | - | - | - |
| 1777778393 | 11.67° C | 57% | 1009 hPa | 0 mm | - | - | - |
| 1777778101 | 11.67° C | 57% | 1008.9 hPa | 0 mm | - | - | - |
| 1777777793 | 11.67° C | 57% | 1008.9 hPa | 0 mm | - | - | - |
| 1777777501 | 11.67° C | 57% | 1008.9 hPa | 0 mm | - | - | - |
| 1777777194 | 11.67° C | 57% | 1009.1 hPa | 0 mm | - | - | - |
| 1777776902 | 11.67° C | 57% | 1008.8 hPa | 0 mm | - | - | - |
| 1777776593 | 11.67° C | 57% | 1009.1 hPa | 0 mm | - | - | - |
| 1777776301 | 11.67° C | 57% | 1008.8 hPa | 0 mm | - | - | - |
| 1777775993 | 11.11° C | 56% | 1008.9 hPa | 0 mm | - | - | - |
| 1777775701 | 11.11° C | 56% | 1008.9 hPa | 0 mm | - | - | - |
| 1777775401 | 11.11° C | 56% | 1009 hPa | 0 mm | - | - | - |
| 1777775102 | 11.67° C | 56% | 1009.2 hPa | 0 mm | - | - | - |
| 1777773001 | 12.22° C | 54% | 1009.2 hPa | 0 mm | - | - | - |
| 1777769702 | 11.67° C | 56% | 1009.4 hPa | 0 mm | - | - | - |
| 1777768194 | 11.67° C | 57% | 1009.5 hPa | 0 mm | - | - | - |
| 1777767294 | 11.67° C | 56% | 1009.8 hPa | 0 mm | - | - | - |
| 1777764901 | 12.22° C | 56% | 1010.2 hPa | 0 mm | - | - | - |
| 1777762502 | 12.78° C | 54% | 1010.5 hPa | 0 mm | - | - | - |
| 1777761902 | 12.78° C | 54% | 1010.4 hPa | 0 mm | - | - | - |
| 1777761305 | 12.78° C | 53% | 1010.6 hPa | 0 mm | - | - | - |
* Rain latest hour (hover to see other rain measurements)
** Current wind speed in m/s (hover to see current wind gust speed)